Location: Lake Runnemede Observatory
(43.4843°N, 72.3851°W)
Time: 11:57:08
(UTC-05:00)

Amateur Radio Satellites - All Passes

Search period start: 19 January 2017 11:27
Search period end: 20 January 2017 11:27
Location: Lake Runnemede Observatory, 43.4843°N, 72.3851°W

Satellite Date Start Highest point End Downlink Frequencies (MHz)
Time Altitude Azimuth
JAS-2 19 Jan 11:31:02 11:34:34 18° 272° (W) 11:38:18 435.910
Oscar 19 19 Jan 11:33:25 11:37:57 31° 66° (ENE) 11:42:30 437.125/150
VELOX 1 19 Jan 11:36:32 11:40:40 39° 98° (E) 11:44:45 145.980
Gurwin Techsat 1B 19 Jan 11:37:59 11:41:45 20° 61° (ENE) 11:45:32 435.225
BUGSAT 1 19 Jan 11:42:09 11:46:11 62° 259° (W) 11:50:12 437.445
PCSat 19 Jan 11:42:13 11:43:54 11° 258° (WSW) 11:45:35 145.827
Cosmos 2491 19 Jan 11:57:24 12:05:14 34° 69° (ENE) 12:13:02 435.465 / 435.565
QB50P1 19 Jan 12:00:53 12:02:56 13° 269° (W) 12:05:01 145.935-145.965
POLYITAN 1 19 Jan 12:05:05 12:06:44 12° 270° (W) 12:08:23 437.675
QB50P2 19 Jan 12:06:52 12:07:59 11° 271° (W) 12:09:06 145.880/145.840
50 SAT 19 Jan 12:08:26 12:12:01 73° 102° (ESE) 12:15:33 437.505
YUBILEINY 19 Jan 12:10:33 12:14:38 14° 73° (ENE) 12:18:42 435.215
DX 1 19 Jan 12:12:56 12:17:07 45° 99° (E) 12:21:16 434.975-435.025
TISAT 1 19 Jan 12:14:44 12:15:22 10° 89° (E) 12:15:59 437.305
UKube-1 19 Jan 12:14:47 12:18:45 35° 98° (E) 12:22:40 .
SPROUT 19 Jan 12:14:53 12:19:09 78° 103° (ESE) 12:23:24 437.525
AO-7 19 Jan 12:15:48 12:21:02 19° 46° (NE) 12:26:15 29.400- 29.500
CUSAT 1 19 Jan 12:22:09 12:28:04 22° 61° (ENE) 12:33:51 437.405
CUBEBUG 1 19 Jan 12:26:31 12:30:31 37° 290° (WNW) 12:34:28 437.445
AISAT 19 Jan 12:39:25 12:43:34 42° 290° (WNW) 12:47:41 437.250
AIST 1 19 Jan 12:43:21 12:45:55 15° 85° (E) 12:48:29
ESTCUBE 1 19 Jan 12:57:50 13:00:01 13° 300° (WNW) 13:02:12 437.505/2401.250
DANDE 19 Jan 12:59:30 13:04:03 16° 60° (ENE) 13:08:51 436.750
Oscar 19 19 Jan 13:12:27 13:17:10 35° 263° (W) 13:21:56 437.125/150
VELOX 1 19 Jan 13:13:32 13:16:52 21° 295° (WNW) 13:20:11 145.980
Gurwin Techsat 1B 19 Jan 13:16:00 13:21:14 60° 259° (W) 13:26:31 435.225
ITUPSAT 1 19 Jan 13:19:01 13:20:35 11° 89° (E) 13:22:08 437.325
TISAT 1 19 Jan 13:47:18 13:51:27 70° 286° (WNW) 13:55:36 437.305
DX 1 19 Jan 13:50:00 13:52:58 18° 297° (WNW) 13:55:55 434.975-435.025
UKube-1 19 Jan 13:51:12 13:54:35 23° 295° (WNW) 13:57:57 .
ITAMSAT 1 19 Jan 13:52:01 13:57:07 65° 72° (ENE) 14:02:16 435.822/435.867
BEESAT 19 Jan 13:52:29 13:56:30 26° 95° (E) 14:00:28 436.000
SPROUT 19 Jan 13:53:14 13:54:27 11° 300° (WNW) 13:55:40 437.525
SWISSCUBE 19 Jan 13:53:51 13:58:04 30° 96° (E) 14:02:15 437.505
Cosmos 2491 19 Jan 13:53:58 14:02:28 57° 270° (W) 14:10:58 435.465 / 435.565
YUBILEINY 19 Jan 14:01:00 14:09:44 73° 94° (E) 14:18:33 435.215
CUSAT 1 19 Jan 14:03:00 14:11:03 89° 261° (W) 14:18:36 437.405
AO-7 19 Jan 14:04:05 14:12:21 71° 67° (ENE) 14:20:42 29.400- 29.500
AO-85 19 Jan 14:05:51 14:10:35 85° 120° (ESE) 14:14:57 145.980
Cosmos 2504 19 Jan 14:05:51 14:13:56 45° 89° (E) 14:21:36 435.465 / 435.565
AIST 1 19 Jan 14:18:52 14:23:05 47° 282° (WNW) 14:27:19
O/OREOS (USA 219) 19 Jan 14:28:18 14:30:15 12° 48° (NE) 14:32:11 437.305
DANDE 19 Jan 14:40:16 14:47:54 70° 78° (ENE) 14:56:15 436.750
ITUPSAT 1 19 Jan 14:54:09 14:59:00 81° 282° (WNW) 15:03:48 437.325
HORYU 2 19 Jan 14:59:10 15:00:18 11° 59° (ENE) 15:01:25 437.375
SO-50 19 Jan 15:13:19 15:16:45 21° 40° (NE) 15:20:08 436.795
BRITE-PL 19 Jan 15:21:52 15:27:13 44° 70° (ENE) 15:32:32 437.365/2234.400
BEESAT 19 Jan 15:29:57 15:34:20 36° 292° (WNW) 15:38:41 436.000
SWISSCUBE 19 Jan 15:31:34 15:35:49 32° 293° (WNW) 15:40:03 437.505
GOMX 1 19 Jan 15:33:02 15:37:16 24° 66° (ENE) 15:41:21 467.674
ITAMSAT 1 19 Jan 15:33:51 15:37:03 16° 269° (W) 15:40:15 435.822/435.867
MOZHAYETS 4 19 Jan 15:35:07 15:39:48 89° 116° (ESE) 15:44:27
Cubesat XI-IV 19 Jan 15:39:53 15:42:21 13° 57° (ENE) 15:44:49 437.490
STARS 19 Jan 15:44:15 15:46:57 16° 92° (E) 15:49:37 437.465
CUSAT 1 19 Jan 15:46:36 15:51:54 20° 280° (W) 15:57:02 437.405
AO-85 19 Jan 15:48:43 15:51:30 16° 321° (NW) 15:54:11 145.980
NOAA 15 19 Jan 15:51:40 15:55:10 18° 60° (ENE) 15:58:40 137.62
AO-7 19 Jan 15:59:00 16:05:46 27° 266° (W) 16:12:37 29.400- 29.500
Cosmos 2504 19 Jan 15:59:14 16:07:20 42° 287° (WNW) 16:15:01 435.465 / 435.565
YUBILEINY 19 Jan 16:00:15 16:07:24 27° 295° (WNW) 16:14:36 435.215
M-CUBED/EXP-1 PRIME 19 Jan 16:00:46 16:04:06 52° 106° (ESE) 16:07:17 437.505
BEESAT 3 19 Jan 16:01:30 16:05:09 41° 118° (ESE) 16:08:52 437.485
O/OREOS (USA 219) 19 Jan 16:05:48 16:10:19 88° 247° (WSW) 16:14:50 437.305
LilacSat-2 19 Jan 16:17:25 16:20:13 20° 67° (ENE) 16:23:02 437.200
CUBESAT XI-V 19 Jan 16:17:58 16:22:24 39° 97° (E) 16:26:46 437.345
DOVE 4 19 Jan 16:18:00 16:21:59 24° 67° (ENE) 16:25:47 437.250
KKS-1 19 Jan 16:22:59 16:27:26 89° 113° (ESE) 16:31:52 437.445
DANDE 19 Jan 16:23:52 16:30:09 28° 274° (W) 16:36:52 436.750
HORYU 2 19 Jan 16:31:44 16:36:09 86° 251° (WSW) 16:40:36 437.375
CUTE-I 19 Jan 16:34:01 16:38:52 38° 67° (ENE) 16:43:45 437.470
ITUPSAT 1 19 Jan 16:34:54 16:36:00 11° 303° (WNW) 16:37:06 437.325
AUBIESAT-1 19 Jan 16:38:23 16:41:44 60° 291° (WNW) 16:44:58 437.475
BEESAT 2 19 Jan 16:43:41 16:47:30 51° 119° (ESE) 16:51:24 435.950
HO-68 19 Jan 16:49:54 16:54:42 20° 53° (NE) 16:59:31 435.675
SO-50 19 Jan 16:53:08 16:57:37 62° 239° (WSW) 17:02:00 436.795
BRITE-PL 19 Jan 17:00:52 17:05:46 29° 266° (W) 17:10:38 437.365/2234.400
GOMX 1 19 Jan 17:09:47 17:15:03 49° 261° (W) 17:20:06 467.674
NOAA 18 19 Jan 17:12:09 17:17:26 49° 69° (ENE) 17:22:42 137.9125
MOZHAYETS 4 19 Jan 17:14:46 17:16:14 11° 301° (WNW) 17:17:42
Cubesat XI-IV 19 Jan 17:16:18 17:21:37 87° 75° (ENE) 17:26:59 437.490
STARS 19 Jan 17:19:21 17:23:34 50° 289° (WNW) 17:27:47 437.465
NOAA 15 19 Jan 17:29:07 17:34:22 68° 257° (WSW) 17:39:42 137.62
M-CUBED/EXP-1 PRIME 19 Jan 17:37:23 17:38:07 11° 304° (NW) 17:38:51 437.505
BEESAT 3 19 Jan 17:39:50 17:42:56 22° 316° (NW) 17:46:04 437.485
LilacSat-2 19 Jan 17:51:00 17:54:20 29° 264° (W) 17:57:42 437.200
CINEMA 3 19 Jan 17:53:51 17:58:08 49° 72° (ENE) 18:02:16 145.822/145.860
DOVE 4 19 Jan 17:54:43 17:59:28 41° 262° (W) 18:03:58 437.250
CUTE 1.7 + AOD 2 19 Jan 17:55:23 17:59:02 28° 68° (ENE) 18:02:42 437.475
CUBESAT XI-V 19 Jan 17:55:49 17:59:32 24° 295° (WNW) 18:03:13 437.345
KKS-1 19 Jan 18:02:24 18:03:16 11° 302° (WNW) 18:04:10 437.445
CUTE-I 19 Jan 18:14:24 18:18:59 29° 265° (W) 18:23:35 437.470
BEESAT 2 19 Jan 18:22:38 18:25:35 19° 318° (NW) 18:28:32 435.950
Cosmos 2499 19 Jan 18:22:57 18:29:57 31° 85° (E) 18:36:34 435.465 / 435.565
CANX-2 19 Jan 18:23:43 18:27:56 67° 74° (ENE) 18:32:11 2200.000
AIST 2 19 Jan 18:34:02 18:36:35 16° 110° (ESE) 18:39:10 435.215
HO-68 19 Jan 18:34:15 18:41:27 87° 73° (ENE) 18:48:43 435.675
SEEDS 19 Jan 18:36:59 18:41:05 53° 73° (ENE) 18:45:14 437.485
COMPASS 1 19 Jan 18:44:26 18:48:23 42° 72° (ENE) 18:52:23 437.405
GONETS M04 19 Jan 18:49:11 18:56:53 37° 85° (E) 19:04:38
Oscar 11 19 Jan 18:50:15 18:52:58 17° 63° (ENE) 18:55:42 145.826/435.025
NOAA 18 19 Jan 18:53:55 18:58:19 24° 266° (W) 19:02:43 137.9125
CUBEBUG 2 19 Jan 18:55:18 18:59:21 52° 73° (ENE) 19:03:23 437.445
AAUSAT CUBESAT 2 19 Jan 18:56:42 19:00:41 44° 72° (ENE) 19:04:41 437.432
Cubesat XI-IV 19 Jan 19:00:22 19:02:23 12° 272° (W) 19:04:24 437.490
STRAND 1 19 Jan 19:16:10 19:21:20 75° 103° (ESE) 19:26:28 437.568
FUNcube-1 19 Jan 19:24:17 19:28:05 37° 71° (ENE) 19:31:55 145.935
UWE-3 19 Jan 19:25:38 19:29:45 71° 74° (ENE) 19:33:53 435.000/436.395/437.385
CUTE 1.7 + AOD 2 19 Jan 19:31:14 19:34:49 26° 265° (W) 19:38:27 437.475
CINEMA 3 19 Jan 19:32:48 19:35:30 16° 268° (W) 19:38:10 145.822/145.860
ZACube-1 19 Jan 19:46:28 19:50:34 72° 76° (ENE) 19:54:44 437.345
CANX-2 19 Jan 20:02:51 20:04:14 11° 271° (W) 20:05:37 2200.000
HUMSAT D 19 Jan 20:06:42 20:09:40 20° 65° (ENE) 20:12:40 437.325/437.525
AIST 2 19 Jan 20:10:35 20:14:38 53° 308° (NW) 20:18:45 435.215
Cosmos 2499 19 Jan 20:14:22 20:22:40 58° 283° (WNW) 20:30:24 435.465 / 435.565
SEEDS 19 Jan 20:14:52 20:17:06 14° 270° (W) 20:19:22 437.485
COMPASS 1 19 Jan 20:21:20 20:24:08 17° 268° (W) 20:26:57 437.405
PRISM 19 Jan 20:21:46 20:24:41 19° 93° (E) 20:27:35 437.425
DELFI C3 19 Jan 20:21:50 20:25:43 50° 73° (ENE) 20:29:37 145.870
Oscar 11 19 Jan 20:24:30 20:28:41 50° 260° (W) 20:32:56 145.826/435.025
HO-68 19 Jan 20:25:30 20:30:03 18° 271° (W) 20:34:37 435.675
AAUSAT CUBESAT 2 19 Jan 20:33:43 20:36:22 16° 269° (W) 20:39:03 437.432
CUBEBUG 2 19 Jan 20:34:11 20:36:18 14° 270° (W) 20:38:24 437.445
TIGRISAT 19 Jan 20:44:50 20:45:10 10° 89° (E) 20:45:30 435.000
GONETS M04 19 Jan 20:45:02 20:53:25 51° 286° (WNW) 21:01:55
STRAND 1 19 Jan 20:56:52 20:59:53 16° 301° (WNW) 21:02:54 437.568
AO-85 19 Jan 20:57:19 20:59:21 14° 37° (NE) 21:01:21 145.980
ANTELSAT 19 Jan 20:57:41 21:00:24 16° 92° (E) 21:03:08 437.575/2403.000
BY70-1 19 Jan 20:57:53 20:59:26 13° 64° (ENE) 21:01:02 436.1900
FUNcube-1 19 Jan 21:01:32 21:04:28 19° 267° (W) 21:07:26 145.935
HUMSAT D 19 Jan 21:41:13 21:45:02 37° 263° (W) 21:48:54 437.325/437.525
CUBEBUG 1 19 Jan 21:47:55 21:51:16 22° 65° (ENE) 21:54:36 437.445
AIST 2 19 Jan 21:53:36 21:54:04 10° 329° (NNW) 21:54:34 435.215
PRISM 19 Jan 21:56:17 22:00:07 37° 290° (WNW) 22:03:54 437.425
DELFI C3 19 Jan 21:58:47 22:00:48 13° 269° (W) 22:02:50 145.870
AISAT 19 Jan 22:02:13 22:05:31 21° 65° (ENE) 22:08:49 437.250
UNISAT 6 19 Jan 22:04:18 22:08:45 80° 104° (ESE) 22:13:16 437.425
Cosmos 2499 19 Jan 22:15:13 22:17:34 11° 304° (NW) 22:19:52 435.465 / 435.565
TIGRISAT 19 Jan 22:17:56 22:22:21 80° 285° (WNW) 22:26:52 435.000
ESTCUBE 1 19 Jan 22:19:29 22:24:00 75° 74° (ENE) 22:28:34 437.505/2401.250
BY70-1 19 Jan 22:26:43 22:29:26 32° 263° (W) 22:32:23 436.1900
ANTELSAT 19 Jan 22:33:05 22:37:23 52° 287° (WNW) 22:41:46 437.575/2403.000
POPSAT HIP 1 19 Jan 22:34:05 22:36:39 16° 92° (E) 22:39:13 437.405
JAS-2 19 Jan 22:34:24 22:41:25 56° 100° (E) 22:49:00 435.910
VELOX 1 19 Jan 22:34:36 22:38:46 40° 70° (ENE) 22:42:56 145.980
AO-85 19 Jan 22:36:23 22:40:19 83° 237° (WSW) 22:44:12 145.980
ISS 19 Jan 22:36:36 22:39:51 76° 145° (SE) 22:43:05 145.825
RS-15 19 Jan 22:39:06 22:49:59 45° 109° (ESE) 23:01:17 29.354- 29.394
50 SAT 19 Jan 22:44:06 22:47:20 33° 71° (ENE) 22:50:36 437.505
DUCHIFAT 1 19 Jan 22:45:38 22:48:32 18° 93° (E) 22:51:25 145.980
NANOSAT C BR1 19 Jan 22:50:26 22:53:45 22° 94° (E) 22:57:03 145.865
GONETS M04 19 Jan 22:52:14 22:52:51 10° 311° (NW) 22:53:28
TISAT 1 19 Jan 23:08:11 23:08:43 10° 60° (ENE) 23:09:14 437.305
SPROUT 19 Jan 23:09:01 23:13:14 67° 74° (ENE) 23:17:28 437.525
DX 1 19 Jan 23:09:14 23:13:25 46° 71° (ENE) 23:17:37 434.975-435.025
UKube-1 19 Jan 23:10:10 23:14:06 35° 69° (ENE) 23:18:02 .
CUBEBUG 1 19 Jan 23:23:09 23:27:17 39° 262° (W) 23:31:26 437.445
BUGSAT 1 19 Jan 23:23:36 23:26:09 16° 92° (E) 23:28:43 437.445
AISAT 19 Jan 23:37:29 23:41:42 41° 261° (W) 23:45:56 437.250
QB50P1 19 Jan 23:41:37 23:45:51 89° 92° (E) 23:50:05 145.935-145.965
UNISAT 6 19 Jan 23:43:16 23:44:51 12° 299° (WNW) 23:46:27 437.425
POLYITAN 1 19 Jan 23:45:32 23:49:46 83° 284° (WNW) 23:54:01 437.675
QB50P2 19 Jan 23:46:46 23:51:00 75° 284° (WNW) 23:55:14 145.880/145.840
Cosmos 2504 19 Jan 23:58:55 00:02:49 15° 58° (ENE) 00:06:37 435.465 / 435.565
ESTCUBE 1 19 Jan 23:59:54 00:01:19 11° 271° (W) 00:02:45 437.505/2401.250
POPSAT HIP 1 20 Jan 00:08:37 00:12:41 47° 288° (WNW) 00:16:44 437.405
YUBILEINY 20 Jan 00:10:02 00:18:09 38° 70° (ENE) 00:26:09 435.215
VELOX 1 20 Jan 00:12:04 00:15:22 20° 267° (W) 00:18:41 145.980
ISS 20 Jan 00:13:48 00:16:35 26° 344° (NNW) 00:19:24 145.825
BEESAT 3 20 Jan 00:17:09 00:20:53 37° 49° (NE) 00:24:37 437.485
50 SAT 20 Jan 00:18:25 00:20:40 16° 267° (W) 00:22:55 437.505
JAS-2 20 Jan 00:20:00 00:26:08 33° 296° (WNW) 00:32:45 435.910
DUCHIFAT 1 20 Jan 00:20:26 00:24:22 40° 289° (WNW) 00:28:18 145.980
AIST 1 20 Jan 00:24:30 00:28:36 43° 77° (ENE) 00:32:40
NANOSAT C BR1 20 Jan 00:25:44 00:29:31 33° 291° (WNW) 00:33:17 145.865
ITUPSAT 1 20 Jan 00:26:16 00:29:17 17° 61° (ENE) 00:32:18 437.325
PCSat 20 Jan 00:38:22 00:43:44 73° 118° (ESE) 00:49:10 145.827
TISAT 1 20 Jan 00:39:30 00:43:42 83° 258° (WSW) 00:47:53 437.305
UKube-1 20 Jan 00:46:48 00:50:12 22° 266° (W) 00:53:37 .
DX 1 20 Jan 00:46:56 00:49:51 17° 268° (W) 00:52:45 434.975-435.025
SPROUT 20 Jan 00:48:20 00:49:36 11° 271° (W) 00:50:53 437.525
RS-15 20 Jan 00:50:17 01:02:06 63° 313° (NW) 01:14:26 29.354- 29.394
BUGSAT 1 20 Jan 00:57:55 01:01:43 41° 289° (WNW) 01:05:31 437.445
BEESAT 20 Jan 00:59:50 01:04:06 34° 68° (ENE) 01:08:24 436.000
BEESAT 2 20 Jan 01:00:16 01:04:11 45° 51° (NE) 01:08:04 435.950
Cosmos 2491 20 Jan 01:00:31 01:08:12 37° 85° (E) 01:15:56 435.465 / 435.565
SWISSCUBE 20 Jan 01:01:14 01:05:38 39° 69° (ENE) 01:10:04 437.505
MOZHAYETS 4 20 Jan 01:04:21 01:05:54 12° 59° (ENE) 01:07:27
M-CUBED/EXP-1 PRIME 20 Jan 01:16:22 01:17:18 11° 56° (NE) 01:18:13 437.505
Oscar 19 20 Jan 01:22:09 01:27:21 76° 103° (ESE) 01:32:29 437.125/150
CUSAT 1 20 Jan 01:28:09 01:29:56 11° 74° (ENE) 01:31:49 437.405
Gurwin Techsat 1B 20 Jan 01:30:56 01:36:06 49° 99° (E) 01:41:14 435.225
KKS-1 20 Jan 01:49:08 01:50:21 11° 59° (ENE) 01:51:33 437.445
Cosmos 2504 20 Jan 01:50:10 01:57:39 79° 81° (E) 02:04:49 435.465 / 435.565
AUBIESAT-1 20 Jan 01:51:19 01:54:18 19° 61° (ENE) 01:57:09 437.475
ISS 20 Jan 01:51:22 01:53:50 19° 4° (N) 01:56:17 145.825
BEESAT 3 20 Jan 01:55:10 01:58:18 22° 247° (WSW) 02:01:25 437.485
ITUPSAT 1 20 Jan 02:01:55 02:06:37 61° 258° (WSW) 02:11:22 437.325
AIST 1 20 Jan 02:03:13 02:05:48 16° 275° (W) 02:08:22
ITAMSAT 1 20 Jan 02:04:26 02:08:17 21° 93° (E) 02:12:08 435.822/435.867
AO-7 20 Jan 02:05:48 02:11:37 20° 91° (E) 02:17:22 29.400- 29.500
YUBILEINY 20 Jan 02:06:45 02:15:09 51° 271° (W) 02:23:28 435.215
PCSat 20 Jan 02:23:34 02:27:43 22° 318° (NW) 02:31:51 145.827
MOZHAYETS 4 20 Jan 02:37:47 02:42:21 86° 257° (WSW) 02:46:59
BEESAT 20 Jan 02:37:54 02:41:54 27° 265° (W) 02:45:58 436.000
BEESAT 2 20 Jan 02:38:50 02:41:39 18° 248° (WSW) 02:44:27 435.950
PHONESAT 2.4 20 Jan 02:39:30 02:41:27 24° 167° (SSE) 02:43:25 2401.200-2431.200
SWISSCUBE 20 Jan 02:39:45 02:43:32 23° 266° (W) 02:47:22 437.505
STARS 20 Jan 02:42:05 02:45:00 18° 63° (ENE) 02:47:55 437.465
M-CUBED/EXP-1 PRIME 20 Jan 02:46:48 02:51:14 90° 73° (ENE) 02:55:21 437.505
AIST 2 20 Jan 02:52:55 02:56:04 20° 41° (NE) 02:59:14 435.215
Cosmos 2491 20 Jan 02:56:21 03:04:45 51° 286° (WNW) 03:13:14 435.465 / 435.565
Oscar 19 20 Jan 03:03:00 03:06:01 16° 301° (WNW) 03:09:03 437.125/150
CUSAT 1 20 Jan 03:05:10 03:10:14 83° 98° (E) 03:16:54 437.405
RS-15 20 Jan 03:07:31 03:17:50 30° 343° (NNW) 03:28:17 29.354- 29.394
Gurwin Techsat 1B 20 Jan 03:11:33 03:15:43 24° 297° (WNW) 03:19:53 435.225
KKS-1 20 Jan 03:21:45 03:26:13 87° 254° (WSW) 03:30:41 437.445
CUBESAT XI-V 20 Jan 03:22:03 03:26:30 44° 71° (ENE) 03:30:59 437.345
AUBIESAT-1 20 Jan 03:24:21 03:28:28 43° 255° (WSW) 03:32:20 437.475
ISS 20 Jan 03:27:49 03:30:55 40° 24° (NNE) 03:34:01 145.825
BRITE-PL 20 Jan 03:28:57 03:30:02 11° 85° (E) 03:31:07 437.365/2234.400
ITAMSAT 1 20 Jan 03:42:59 03:48:02 52° 290° (WNW) 03:53:05 435.822/435.867
Cosmos 2504 20 Jan 03:45:20 03:49:59 18° 282° (WNW) 03:54:32 435.465 / 435.565
DANDE 20 Jan 03:51:05 03:54:48 58° 95° (E) 03:59:49 436.750
AO-7 20 Jan 03:56:57 04:05:22 88° 291° (WNW) 04:13:43 29.400- 29.500
PHONESAT 2.4 20 Jan 04:13:07 04:15:17 37° 183° (S) 04:17:27 2401.200-2431.200
STARS 20 Jan 04:16:45 04:20:59 48° 260° (W) 04:25:14 437.465
HORYU 2 20 Jan 04:22:31 04:25:18 16° 92° (E) 04:28:05 437.375
AIST 2 20 Jan 04:30:43 04:34:53 57° 240° (WSW) 04:39:02 435.215
CUSAT 1 20 Jan 04:49:48 04:53:24 17° 304° (NW) 04:57:31 437.405
CUTE-I 20 Jan 04:51:20 04:53:50 13° 89° (E) 04:56:19 437.470
STRAND 1 20 Jan 04:56:32 04:59:41 17° 60° (ENE) 05:02:50 437.568
GONETS M04 20 Jan 04:57:48 05:03:55 20° 60° (ENE) 05:10:02
CUBESAT XI-V 20 Jan 05:00:34 05:04:04 21° 268° (W) 05:07:36 437.345
Cosmos 2491 20 Jan 05:03:29 05:04:10 10° 310° (NW) 05:04:51 435.465 / 435.565
BRITE-PL 20 Jan 05:04:20 05:09:20 82° 284° (WNW) 05:13:52 437.365/2234.400
ISS 20 Jan 05:04:25 05:07:19 30° 222° (SW) 05:10:14 145.825
GOMX 1 20 Jan 05:10:58 05:15:15 44° 98° (E) 05:19:18 467.674
LilacSat-2 20 Jan 05:22:50 05:26:04 25° 95° (E) 05:29:18 437.200
RS-15 20 Jan 05:24:58 05:35:32 31° 19° (NNE) 05:45:56 29.354- 29.394
Cubesat XI-IV 20 Jan 05:32:38 05:37:22 32° 96° (E) 05:42:06 437.490
NOAA 18 20 Jan 05:33:58 05:37:36 18° 91° (E) 05:41:13 137.9125
DANDE 20 Jan 05:36:09 05:38:27 14° 303° (WNW) 05:41:05 436.750
NOAA 15 20 Jan 05:43:09 05:48:11 41° 98° (E) 05:53:10 137.62
PHONESAT 2.4 20 Jan 05:47:22 05:49:03 18° 199° (SSW) 05:50:44 2401.200-2431.200
AO-7 20 Jan 05:50:59 05:57:03 23° 310° (NW) 06:03:07 29.400- 29.500
DOVE 4 20 Jan 05:52:20 05:56:24 46° 99° (E) 06:00:22 437.250
HORYU 2 20 Jan 05:57:49 06:02:08 51° 289° (WNW) 06:06:27 437.375
HO-68 20 Jan 06:02:53 06:06:44 15° 88° (E) 06:10:34 435.675
Cosmos 2499 20 Jan 06:04:22 06:11:22 52° 76° (ENE) 06:18:13 435.465 / 435.565
CANX-2 20 Jan 06:10:02 06:11:07 11° 88° (E) 06:12:13 2200.000
O/OREOS (USA 219) 20 Jan 06:19:00 06:23:29 88° 113° (ESE) 06:27:59 437.305
CUTE-I 20 Jan 06:29:08 06:34:30 82° 286° (WNW) 06:39:51 437.470
STRAND 1 20 Jan 06:33:14 06:38:18 70° 258° (WSW) 06:43:24 437.568
BRITE-PL 20 Jan 06:45:46 06:46:49 11° 304° (NW) 06:47:51 437.365/2234.400
GOMX 1 20 Jan 06:49:57 06:52:58 18° 297° (WNW) 06:55:54 467.674
GONETS M04 20 Jan 06:53:14 07:02:08 87° 82° (E) 07:11:01
LilacSat-2 20 Jan 06:57:06 07:00:18 25° 291° (WNW) 07:03:28 437.200
SO-50 20 Jan 07:08:21 07:12:31 32° 115° (ESE) 07:16:40 436.795
PRISM 20 Jan 07:12:28 07:15:11 17° 64° (ENE) 07:17:55 437.425
Cubesat XI-IV 20 Jan 07:12:37 07:17:27 36° 293° (WNW) 07:22:16 437.490
NOAA 18 20 Jan 07:13:18 07:18:43 64° 289° (WNW) 07:24:05 137.9125
CUTE 1.7 + AOD 2 20 Jan 07:14:03 07:18:14 47° 99° (E) 07:22:22 437.475
UWE-3 20 Jan 07:15:10 07:17:21 13° 90° (E) 07:19:33 435.000/436.395/437.385
NOAA 15 20 Jan 07:23:18 07:27:45 28° 296° (WNW) 07:32:12 137.62
CINEMA 3 20 Jan 07:23:45 07:27:56 76° 284° (WNW) 07:32:12 145.822/145.860
DOVE 4 20 Jan 07:31:08 07:33:44 16° 297° (WNW) 07:36:18 437.250
ZACube-1 20 Jan 07:34:49 07:36:58 13° 90° (E) 07:39:08 437.345
RS-15 20 Jan 07:38:40 07:51:02 66° 49° (NE) 08:02:57 29.354- 29.394
PCSat 20 Jan 07:42:54 07:46:10 16° 37° (NE) 07:49:27 145.827
CANX-2 20 Jan 07:43:09 07:47:27 71° 286° (WNW) 07:51:44 2200.000
TIGRISAT 20 Jan 07:44:51 07:45:48 11° 60° (ENE) 07:46:47 435.000
HO-68 20 Jan 07:48:14 07:55:28 84° 105° (ESE) 08:02:39 435.675
SEEDS 20 Jan 07:54:58 07:59:16 90° 95° (E) 08:03:30 437.485
ANTELSAT 20 Jan 07:58:12 08:00:46 16° 63° (ENE) 08:03:21 437.575/2403.000
Cosmos 2499 20 Jan 07:58:14 08:04:02 28° 276° (W) 08:09:46 435.465 / 435.565
COMPASS 1 20 Jan 08:01:04 08:05:17 70° 101° (ESE) 08:09:28 437.405
O/OREOS (USA 219) 20 Jan 08:01:43 08:03:34 12° 312° (NW) 08:05:25 437.305
Oscar 11 20 Jan 08:10:42 08:14:24 26° 95° (E) 08:18:04 145.826/435.025
CUTE-I 20 Jan 08:11:31 08:13:41 13° 304° (NW) 08:15:53 437.470
AAUSAT CUBESAT 2 20 Jan 08:12:43 08:16:55 72° 101° (ESE) 08:21:05 437.432
CUBEBUG 2 20 Jan 08:20:41 08:25:01 78° 284° (WNW) 08:29:28 437.445
PRISM 20 Jan 08:46:07 08:50:08 45° 260° (W) 08:54:10 437.425
FUNcube-1 20 Jan 08:46:17 08:50:39 71° 101° (E) 08:55:07 145.935
SO-50 20 Jan 08:48:37 08:52:56 35° 313° (NW) 08:57:14 436.795
UWE-3 20 Jan 08:49:51 08:54:09 60° 285° (WNW) 08:58:32 435.000/436.395/437.385
JAS-2 20 Jan 08:50:03 08:54:15 23° 60° (ENE) 08:58:47 435.910
CUTE 1.7 + AOD 2 20 Jan 08:50:51 08:53:42 17° 296° (WNW) 08:56:32 437.475
GONETS M04 20 Jan 08:51:51 08:57:45 20° 283° (WNW) 09:03:40
NOAA 18 20 Jan 08:57:45 08:58:19 10° 307° (NW) 08:58:54 137.9125
UNISAT 6 20 Jan 09:04:09 09:08:24 79° 75° (ENE) 09:12:41 437.425
ZACube-1 20 Jan 09:09:17 09:13:36 61° 286° (WNW) 09:18:00 437.345
TIGRISAT 20 Jan 09:17:37 09:21:52 80° 259° (WSW) 09:26:08 435.000
HUMSAT D 20 Jan 09:23:01 09:26:49 30° 96° (E) 09:30:37 437.325/437.525
PCSat 20 Jan 09:25:05 09:30:32 74° 58° (ENE) 09:35:57 145.827
POPSAT HIP 1 20 Jan 09:28:14 09:30:32 15° 63° (ENE) 09:32:51 437.405
DELFI C3 20 Jan 09:32:24 09:36:24 71° 101° (E) 09:40:22 145.870
ANTELSAT 20 Jan 09:32:57 09:37:05 50° 260° (W) 09:41:15 437.575/2403.000
HO-68 20 Jan 09:37:13 09:42:23 22° 305° (NW) 09:47:31 435.675
COMPASS 1 20 Jan 09:38:36 09:40:15 12° 299° (WNW) 09:41:55 437.405
DUCHIFAT 1 20 Jan 09:39:01 09:41:38 16° 64° (ENE) 09:44:13 145.980
NANOSAT C BR1 20 Jan 09:43:55 09:46:58 20° 65° (ENE) 09:50:00 145.865
Oscar 11 20 Jan 09:46:42 09:50:30 30° 291° (WNW) 09:54:17 145.826/435.025
AAUSAT CUBESAT 2 20 Jan 09:50:20 09:51:48 12° 299° (WNW) 09:53:15 437.432
RS-15 20 Jan 09:51:53 10:02:57 42° 253° (WSW) 10:13:40 29.354- 29.394
ESTCUBE 1 20 Jan 10:12:15 10:14:45 14° 90° (E) 10:17:14 437.505/2401.250
BUGSAT 1 20 Jan 10:15:04 10:17:15 14° 63° (ENE) 10:19:26 437.445
FUNcube-1 20 Jan 10:24:23 10:26:22 13° 298° (WNW) 10:28:21 145.935
JAS-2 20 Jan 10:33:44 10:38:54 52° 261° (W) 10:44:36 435.910
QB50P1 20 Jan 10:34:44 10:38:55 75° 74° (ENE) 10:43:07 145.935-145.965
POLYITAN 1 20 Jan 10:38:49 10:43:00 84° 79° (ENE) 10:47:13 437.675
QB50P2 20 Jan 10:40:02 10:44:14 88° 252° (WSW) 10:48:28 145.880/145.840
SPROUT 20 Jan 10:56:32 10:57:07 10° 89° (E) 10:57:41 437.525
HUMSAT D 20 Jan 10:58:47 11:02:18 25° 292° (WNW) 11:05:50 437.325/437.525
BY70-1 20 Jan 11:00:11 11:03:33 76° 284° (WNW) 11:06:41 436.1900
POPSAT HIP 1 20 Jan 11:01:45 11:05:52 55° 260° (W) 11:10:00 437.405
Oscar 19 20 Jan 11:03:07 11:06:28 18° 60° (ENE) 11:09:51 437.125/150
Cosmos 2491 20 Jan 11:09:15 11:15:17 20° 60° (ENE) 11:21:17 435.465 / 435.565
DELFI C3 20 Jan 11:09:38 11:10:37 11° 299° (WNW) 11:11:37 145.870
PCSat 20 Jan 11:10:00 11:13:17 16° 256° (WSW) 11:16:34 145.827
CUBEBUG 1 20 Jan 11:10:22 11:14:19 33° 97° (E) 11:18:12 437.445
DUCHIFAT 1 20 Jan 11:12:54 11:16:56 48° 260° (W) 11:20:59 145.980
Gurwin Techsat 1B 20 Jan 11:16:52 11:19:17 13° 57° (ENE) 11:21:41 435.225
NANOSAT C BR1 20 Jan 11:18:32 11:22:25 38° 262° (W) 11:26:21 145.865
